EW5239 Weather Reports


Display with metric or nautical units.
time (UTC)temp
F
wind
direction
speed
MPH
gust
MPH
rain 1hr
in
rain 24hr
in
rain mn
in
humidity
%
barometer
mb
20260902150006 71 292 8.0 11.0 0.00 0.00 0.00 56 1016.8
20260902145959 71 283 8.0 11.0 0.00 0.00 0.00 55 1019.0
20260902145506 71 292 8.0 10.0 0.00 0.00 0.00 55 1016.9
20260902145453 71 284 8.0 11.0 0.00 0.00 0.00 54 1019.0
20260902145006 71 282 7.0 9.0 0.00 0.00 0.00 55 1016.9
20260902144953 71 271 7.0 10.0 0.00 0.00 0.00 54 1019.1
20260902144007 71 285 7.0 10.0 0.00 0.00 0.00 56 1016.9
20260902143954 71 281 8.0 11.0 0.00 0.00 0.00 54 1018.7
20260902143506 71 283 6.0 9.0 0.00 0.00 0.00 56 1016.8
20260902143453 71 287 7.0 10.0 0.00 0.00 0.00 54 1018.8
20260902143006 71 264 6.0 8.0 0.00 0.00 0.00 56 1016.8
20260902142954 71 304 7.0 9.0 0.00 0.00 0.00 54 1018.8
20260902142506 71 255 6.0 8.0 0.00 0.00 0.00 56 1016.8
20260902142453 71 280 7.0 9.0 0.00 0.00 0.00 55 1019.0
20260902142007 71 255 6.0 7.0 0.00 0.00 0.00 58 1016.7
20260902141953 71 267 6.0 7.0 0.00 0.00 0.00 57 1019.0
20260902141453 71 264 6.0 7.0 0.00 0.00 0.00 56 1019.0
20260902141006 71 266 5.0 8.0 0.00 0.00 0.00 57 1016.8
20260902140953 71 269 5.0 8.0 0.00 0.00 0.00 55 1018.9
20260902140006 71 282 7.0 9.0 0.00 0.00 0.00 56 1017.0
20260902135959 71 298 8.0 10.0 0.00 0.00 0.00 55 1018.9
20260902135506 71 287 8.0 11.0 0.00 0.00 0.00 56 1017.1
20260902135453 71 311 9.0 13.0 0.00 0.00 0.00 54 1019.1
20260902135006 71 290 10.0 13.0 0.00 0.00 0.00 58 1017.2
20260902134953 71 318 11.0 13.0 0.00 0.00 0.00 56 1019.0
20260902134506 71 291 9.0 13.0 0.00 0.00 0.00 58 1017.1
20260902134453 71 305 10.0 13.0 0.00 0.00 0.00 57 1019.2
20260902134006 71 277 7.0 11.0 0.00 0.00 0.00 59 1017.4
20260902133506 71 274 8.0 13.0 0.00 0.00 0.00 60 1017.2
20260902133007 71 306 9.0 13.0 0.00 0.00 0.00 59 1017.2
20260902132953 71 292 9.0 13.0 0.00 0.00 0.00 58 1019.3
20260902132506 71 311 8.0 11.0 0.00 0.00 0.00 59 1017.2
20260902132006 71 284 8.0 13.0 0.00 0.00 0.00 59 1017.2
20260902131953 71 297 9.0 14.0 0.00 0.00 0.00 58 1019.3
20260902131506 71 259 9.0 14.0 0.00 0.00 0.00 58 1017.4
20260902131453 71 321 10.0 14.0 0.00 0.00 0.00 57 1019.4
20260902130506 70 279 12.0 16.0 0.00 0.00 0.00 58 1017.4
20260902130453 70 301 12.0 16.0 0.00 0.00 0.00 56 1019.3
20260902130006 70 290 11.0 14.0 0.00 0.00 0.00 58 1017.4
20260902130002 70 305 11.0 15.0 0.00 0.00 0.00 57 1019.3
20260902125506 71 300 11.0 14.0 0.00 0.00 0.00 58 1017.3
20260902125007 71 268 9.0 11.0 0.00 0.00 0.00 61 1017.4
20260902124953 71 265 9.0 11.0 0.00 0.00 0.00 59 1019.1
20260902124506 71 269 9.0 12.0 0.00 0.00 0.00 60 1017.4
20260902124453 71 265 9.0 12.0 0.00 0.00 0.00 59 1019.0
20260902123953 71 270 9.0 15.0 0.00 0.00 0.00 59 1019.3
20260902123506 70 276 9.0 14.0 0.00 0.00 0.00 63 1017.5
20260902123453 71 272 9.0 15.0 0.00 0.00 0.00 62 1019.2
20260902123006 70 282 9.0 12.0 0.00 0.00 0.00 62 1017.6
20260902122954 70 268 9.0 14.0 0.00 0.00 0.00 62 1019.3
20260902122506 70 299 9.0 12.0 0.00 0.00 0.00 63 1017.6
20260902122453 70 291 9.0 14.0 0.00 0.00 0.00 61 1019.5
20260902122006 70 304 9.0 11.0 0.00 0.00 0.00 63 1017.7
20260902121953 70 308 9.0 11.0 0.00 0.00 0.00 63 1019.6
20260902121507 70 297 9.0 12.0 0.00 0.00 0.00 64 1017.9
20260902121006 70 274 9.0 12.0 0.00 0.00 0.00 64 1017.8
20260902120954 69 255 9.0 11.0 0.00 0.00 0.00 63 1019.4
20260902120506 69 275 8.0 10.0 0.00 0.00 0.00 65 1017.9
20260902120453 69 271 9.0 12.0 0.00 0.00 0.00 64 1019.7
20260902120006 69 290 7.0 10.0 0.00 0.00 0.00 65 1017.9
20260902120000 69 289 7.0 12.0 0.00 0.00 0.00 64 1019.7
20260902115455 69 262 6.0 10.0 0.00 0.00 0.00 63 1019.5
20260902115006 70 271 7.0 11.0 0.00 0.00 0.00 62 1017.9
20260902114953 70 265 7.0 11.0 0.00 0.00 0.00 60 1019.6
20260902114506 70 275 8.0 11.0 0.00 0.00 0.00 62 1017.8
20260902114453 70 282 8.0 11.0 0.00 0.00 0.00 60 1019.6
20260902114006 70 288 8.0 11.0 0.00 0.00 0.00 62 1017.7
20260902113953 71 302 8.0 11.0 0.00 0.00 0.00 61 1019.6
20260902113506 70 295 8.0 11.0 0.00 0.00 0.00 63 1017.8
20260902113453 71 314 8.0 11.0 0.00 0.00 0.00 62 1019.7
20260902113006 70 266 8.0 11.0 0.00 0.00 0.00 63 1017.7
20260902112954 70 293 8.0 11.0 0.00 0.00 0.00 62 1019.5
20260902112453 70 294 8.0 11.0 0.00 0.00 0.00 62 1019.7
20260902111953 71 298 6.0 9.0 0.00 0.00 0.00 59 1019.8
20260902111506 70 271 7.0 11.0 0.00 0.00 0.00 64 1017.9
20260902111454 71 282 7.0 11.0 0.00 0.00 0.00 62 1020.0
20260902111006 69 280 10.0 15.0 0.00 0.00 0.00 66 1017.9
20260902110953 69 282 10.0 15.0 0.00 0.00 0.00 65 1019.7
20260902110506 69 270 11.0 15.0 0.00 0.00 0.00 64 1018.1
20260902110008 69 276 10.0 13.0 0.00 0.00 0.00 64 1018.1
20260902105959 69 275 10.0 15.0 0.00 0.00 0.00 63 1019.7
20260902105506 69 281 8.0 13.0 0.00 0.00 0.00 65 1017.9
20260902105454 69 282 9.0 13.0 0.00 0.00 0.00 63 1019.8
20260902104953 69 277 8.0 11.0 0.00 0.00 0.00 65 1020.0
20260902104506 68 258 8.0 10.0 0.00 0.00 0.00 66 1018.1
20260902104006 68 262 7.0 10.0 0.00 0.00 0.00 68 1018.1
20260902103953 68 283 8.0 11.0 0.00 0.00 0.00 66 1019.7
20260902103506 68 258 8.0 11.0 0.00 0.00 0.00 67 1018.1
20260902103007 68 260 7.0 11.0 0.00 0.00 0.00 68 1018.0
20260902102506 68 270 7.0 9.0 0.00 0.00 0.00 68 1018.2
20260902102453 67 277 8.0 10.0 0.00 0.00 0.00 67 1020.1
20260902102006 68 280 9.0 12.0 0.00 0.00 0.00 68 1018.4
20260902101953 68 266 9.0 13.0 0.00 0.00 0.00 67 1019.8
20260902101506 68 287 8.0 12.0 0.00 0.00 0.00 69 1018.3
20260902101454 68 251 9.0 13.0 0.00 0.00 0.00 67 1020.0
20260902101005 68 303 6.0 8.0 0.00 0.00 0.00 71 1018.2
20260902100954 68 258 8.0 9.0 0.00 0.00 0.00 69 1020.0
20260902100506 68 297 6.0 8.0 0.00 0.00 0.00 70 1018.1
20260902100453 67 284 7.0 9.0 0.00 0.00 0.00 69 1019.8
20260902100006 68 287 7.0 9.0 0.00 0.00 0.00 70 1018.3
20260902100000 68 294 7.0 10.0 0.00 0.00 0.00 69 1020.1
20260902095506 68 305 6.0 9.0 0.00 0.00 0.00 69 1018.3
20260902095453 68 299 6.0 10.0 0.00 0.00 0.00 67 1020.1
20260902095005 68 320 6.0 8.0 0.00 0.00 0.00 70 1018.2
20260902094954 68 291 6.0 9.0 0.00 0.00 0.00 67 1020.0
20260902094506 69 297 7.0 12.0 0.00 0.00 0.00 71 1018.3
20260902094454 69 275 8.0 12.0 0.00 0.00 0.00 67 1019.9
20260902094006 68 284 9.0 12.0 0.00 0.00 0.00 73 1018.2
20260902093953 69 271 8.0 12.0 0.00 0.00 0.00 69 1020.1
20260902093506 68 277 7.0 12.0 0.00 0.00 0.00 73 1018.2
20260902093453 68 275 7.0 11.0 0.00 0.00 0.00 71 1020.0
20260902093006 68 274 7.0 10.0 0.00 0.00 0.00 74 1018.3
20260902092954 68 295 7.0 11.0 0.00 0.00 0.00 70 1019.9
20260902092506 67 272 7.0 10.0 0.00 0.00 0.00 74 1018.3
20260902092454 68 295 7.0 11.0 0.00 0.00 0.00 70 1020.2
20260902092006 67 254 8.0 13.0 0.00 0.00 0.00 74 1018.4
20260902091506 67 263 9.0 13.0 0.00 0.01 0.00 74 1018.3
20260902091453 67 253 9.0 13.0 0.00 0.00 0.00 71 1020.0
20260902091006 67 273 7.0 11.0 0.00 0.01 0.00 75 1018.4
20260902090953 67 285 7.0 11.0 0.00 0.00 0.00 72 1020.0
20260902090506 67 265 7.0 11.0 0.00 0.01 0.00 75 1018.3
20260902090453 67 298 7.0 10.0 0.00 0.00 0.00 74 1020.1
20260902090006 67 263 7.0 11.0 0.00 0.01 0.00 76 1018.4
20260902085959 67 270 7.0 11.0 0.00 0.00 0.00 74 1020.2
20260902085506 66 277 7.0 11.0 0.00 0.01 0.00 77 1018.5
20260902085454 67 246 7.0 11.0 0.00 0.00 0.00 74 1020.1
20260902084954 67 251 8.0 11.0 0.00 0.00 0.00 74 1020.0
20260902084506 66 259 7.0 10.0 0.00 0.01 0.00 78 1018.2
20260902084454 66 277 8.0 11.0 0.00 0.00 0.00 75 1020.1
20260902084006 66 238 6.0 10.0 0.00 0.01 0.00 77 1018.3
20260902083506 66 228 5.0 8.0 0.00 0.01 0.00 77 1018.4
20260902083453 66 261 5.0 9.0 0.00 0.00 0.00 73 1020.0
20260902083006 66 246 5.0 8.0 0.00 0.01 0.00 78 1018.2
20260902082953 67 265 5.0 9.0 0.00 0.00 0.00 74 1020.1
20260902082506 66 257 5.0 8.0 0.00 0.01 0.00 78 1018.2
20260902082454 66 256 5.0 8.0 0.00 0.00 0.00 75 1019.9
20260902082006 66 270 5.0 8.0 0.00 0.01 0.00 79 1018.2
20260902081953 66 258 5.0 8.0 0.00 0.00 0.00 76 1019.9
20260902081506 65 273 6.0 9.0 0.00 0.01 0.00 79 1018.2
20260902080953 65 273 6.0 9.0 0.00 0.00 0.00 77 1019.8
20260902080506 65 266 6.0 8.0 0.00 0.01 0.00 79 1018.0
20260902080454 65 297 7.0 9.0 0.00 0.00 0.00 77 1019.8
20260902080006 65 291 8.0 10.0 0.00 0.01 0.00 79 1018.1
20260902075959 65 296 8.0 10.0 0.00 0.00 0.00 77 1019.7
20260902075454 65 270 6.0 10.0 0.00 0.00 0.00 78 1020.0
20260902074953 65 258 4.0 8.0 0.00 0.00 0.00 78 1020.1
20260902074506 64 249 5.0 8.0 0.00 0.01 0.00 81 1017.9
20260902074454 65 265 5.0 8.0 0.00 0.00 0.00 79 1019.8
20260902074006 64 250 4.0 8.0 0.00 0.01 0.00 82 1018.1
20260902073505 64 282 5.0 8.0 0.00 0.01 0.00 82 1018.1
20260902073454 64 283 5.0 8.0 0.00 0.00 0.00 82 1020.0
20260902073006 63 290 6.0 9.0 0.00 0.01 0.00 82 1018.0
20260902072953 63 298 6.0 10.0 0.00 0.00 0.00 81 1019.9
20260902072506 64 296 6.0 9.0 0.00 0.01 0.00 82 1018.0
20260902072454 63 318 6.0 10.0 0.00 0.00 0.00 82 1019.7
20260902072006 64 284 6.0 8.0 0.00 0.01 0.00 83 1018.0
20260902071954 64 306 6.0 8.0 0.00 0.00 0.00 82 1019.8
20260902071506 63 257 6.0 8.0 0.00 0.01 0.00 83 1018.0
20260902071453 63 281 6.0 8.0 0.00 0.00 0.00 83 1019.8
20260902070954 63 270 6.0 7.0 0.00 0.00 0.00 84 1019.6
20260902070506 62 283 6.0 8.0 0.00 0.01 0.00 85 1017.9
20260902070007 62 264 6.0 8.0 0.00 0.01 0.00 85 1017.8
20260902065959 62 273 6.0 8.0 0.00 0.00 0.00 85 1019.7
20260902065506 61 252 6.0 8.0 0.00 0.01 0.00 86 1017.7
20260902065454 61 281 6.0 8.0 0.00 0.00 0.00 86 1019.5
20260902065006 61 275 6.0 8.0 0.00 0.01 0.00 86 1017.6
20260902064953 61 312 6.0 8.0 0.00 0.00 0.00 86 1019.6
20260902064506 61 287 6.0 8.0 0.00 0.01 0.00 86 1017.7
20260902064454 61 301 6.0 8.0 0.00 0.00 0.00 87 1019.7
20260902064005 61 271 5.0 8.0 0.00 0.01 0.00 88 1017.7
20260902063953 61 267 5.0 7.0 0.00 0.00 0.00 88 1019.5
20260902063506 60 266 5.0 6.0 0.00 0.01 0.00 88 1017.5
20260902063453 60 260 5.0 8.0 0.00 0.00 0.00 88 1019.6
20260902062506 60 267 5.0 8.0 0.00 0.01 0.00 88 1017.6
20260902062453 59 267 4.0 8.0 0.00 0.00 0.00 88 1019.5
20260902062005 59 261 5.0 7.0 0.00 0.01 0.00 88 1017.4
20260902061953 59 275 5.0 7.0 0.00 0.00 0.00 88 1019.5
20260902061506 59 258 6.0 7.0 0.00 0.01 0.00 88 1017.6
20260902060506 59 266 7.0 8.0 0.00 0.01 0.00 90 1017.6
20260902060454 59 264 7.0 9.0 0.00 0.00 0.00 90 1019.4
20260902060005 59 264 7.0 11.0 0.00 0.01 0.00 90 1017.7
20260902055959 59 265 8.0 11.0 0.00 0.00 0.00 91 1019.3
20260902055506 59 263 7.0 11.0 0.00 0.01 0.00 91 1017.4
20260902055454 59 270 7.0 11.0 0.00 0.00 0.00 93 1019.3
20260902055006 59 262 5.0 8.0 0.00 0.01 0.00 92 1017.4
20260902054506 59 252 4.0 6.0 0.00 0.01 0.00 93 1017.3
20260902054454 58 252 4.0 6.0 0.00 0.00 0.00 95 1019.3
20260902054006 58 254 3.0 4.0 0.00 0.01 0.00 94 1017.3
20260902053953 57 246 3.0 4.0 0.00 0.00 0.00 96 1019.0
20260902053506 57 276 3.0 4.0 0.00 0.01 0.00 94 1017.2
20260902053454 57 251 3.0 4.0 0.00 0.00 0.00 97 1019.3
20260902053006 57 264 4.0 7.0 0.00 0.01 0.00 95 1017.1
20260902052953 56 249 4.0 6.0 0.00 0.00 0.00 97 1019.1
20260902052454 56 261 4.0 6.0 0.00 0.00 0.00 97 1019.1
20260902052006 56 244 3.0 4.0 0.00 0.01 0.00 95 1017.2
20260902051954 56 269 3.0 4.0 0.00 0.00 0.00 97 1019.1
20260902051506 56 258 3.0 4.0 0.00 0.01 0.00 95 1017.1
20260902051454 55 261 3.0 4.0 0.00 0.00 0.00 97 1019.1
20260902051006 56 254 3.0 4.0 0.00 0.01 0.00 95 1017.2
20260902050953 55 254 3.0 4.0 0.00 0.00 0.00 97 1019.1
20260902050506 56 246 3.0 4.0 0.00 0.01 0.00 95 1017.0
20260902050453 55 240 3.0 4.0 0.00 0.00 0.00 97 1019.2
20260902050008 55 245 2.0 3.0 0.00 0.01 0.00 94 1016.9
20260902045505 55 241 2.0 3.0 0.00 0.01 0.00 94 1016.9
20260902045454 55 236 2.0 3.0 0.00 0.00 0.00 97 1019.0
20260902045006 55 234 2.0 2.0 0.00 0.01 0.00 94 1017.0
20260902044954 55 236 2.0 2.0 0.00 0.00 0.00 97 1019.0
20260902044006 55 251 1.0 3.0 0.00 0.01 0.00 94 1016.9
20260902043954 55 244 1.0 3.0 0.00 0.00 0.00 97 1019.1
20260902043506 55 243 2.0 3.0 0.00 0.01 0.00 94 1016.8
20260902043454 55 250 2.0 3.0 0.00 0.00 0.00 97 1018.8
20260902043006 55 264 3.0 3.0 0.00 0.01 0.00 94 1016.8
20260902042953 55 268 2.0 3.0 0.00 0.00 0.00 97 1018.9
20260902042506 55 266 3.0 4.0 0.00 0.01 0.00 95 1016.9
20260902042005 55 239 2.0 4.0 0.00 0.01 0.00 95 1016.8
20260902041954 55 220 2.0 3.0 0.00 0.00 0.00 97 1018.9
20260902041506 55 234 2.0 2.0 0.00 0.01 0.00 95 1016.7
20260902041453 55 205 2.0 2.0 0.00 0.00 0.00 97 1018.8
20260902041006 55 231 2.0 2.0 0.00 0.01 0.00 94 1016.7
20260902040953 55 217 2.0 3.0 0.00 0.00 0.00 97 1018.6
20260902040454 55 225 2.0 3.0 0.00 0.00 0.00 97 1018.7
20260902040005 55 237 2.0 3.0 0.00 0.01 0.00 94 1016.7
20260902035959 55 217 2.0 3.0 0.00 0.00 0.00 97 1018.8
20260902035454 55 210 2.0 4.0 0.00 0.00 0.00 97 1018.6
20260902035006 55 225 3.0 4.0 0.00 0.01 0.00 94 1016.8
20260902034953 54 227 3.0 4.0 0.00 0.00 0.00 97 1018.6
20260902034506 55 226 3.0 4.0 0.00 0.01 0.00 94 1016.8
20260902034453 54 228 3.0 4.0 0.00 0.00 0.00 97 1018.8
20260902034005 55 234 3.0 4.0 0.00 0.01 0.00 94 1016.7
20260902033506 55 243 3.0 4.0 0.00 0.01 0.00 94 1016.7
20260902033454 54 214 3.0 4.0 0.00 0.00 0.00 96 1019.0
20260902032953 54 226 3.0 4.0 0.00 0.00 0.00 96 1019.1
20260902032506 54 221 2.0 4.0 0.00 0.01 0.00 93 1016.8
20260902032454 54 230 2.0 4.0 0.00 0.00 0.00 96 1019.0
20260902032005 54 215 2.0 2.0 0.00 0.01 0.00 93 1016.8
20260902031954 54 211 2.0 2.0 0.00 0.00 0.00 96 1018.7
20260902031506 54 211 1.0 2.0 0.00 0.01 0.00 93 1016.7
20260902031453 54 192 1.0 2.0 0.00 0.00 0.00 96 1018.9
20260902031006 54 259 0.0 2.0 0.00 0.01 0.00 93 1016.8
20260902030953 54 214 1.0 2.0 0.00 0.00 0.00 96 1019.0
20260902030454 54 254 2.0 2.0 0.00 0.00 0.00 96 1018.9
20260902030006 54 280 2.0 3.0 0.00 0.01 0.00 93 1017.0
20260902025959 54 254 2.0 3.0 0.00 0.00 0.00 96 1019.2
20260902025506 54 257 3.0 4.0 0.00 0.01 0.00 93 1017.0
20260902025453 54 223 2.0 4.0 0.00 0.00 0.00 96 1019.0
20260902025006 54 237 3.0 4.0 0.00 0.01 0.00 93 1016.9
20260902024953 54 218 2.0 4.0 0.00 0.00 0.00 95 1019.0
20260902024505 54 222 2.0 3.0 0.00 0.01 0.00 93 1016.8
20260902024454 54 220 2.0 2.0 0.00 0.00 0.00 95 1018.9
20260902023953 54 236 2.0 4.0 0.00 0.00 0.00 95 1018.7
20260902023506 54 247 2.0 4.0 0.00 0.01 0.00 93 1016.9
20260902023006 54 225 2.0 4.0 0.00 0.01 0.00 93 1016.9
20260902022954 54 229 2.0 4.0 0.00 0.00 0.00 95 1018.8
20260902022454 54 228 2.0 4.0 0.00 0.00 0.00 94 1019.0
20260902022006 54 245 0.0 2.0 0.00 0.01 0.00 92 1017.0
20260902021953 54 219 2.0 4.0 0.00 0.00 0.00 94 1018.9
20260902021454 54 232 2.0 4.0 0.00 0.00 0.00 94 1019.0
20260902021006 54 0 0.0 0.0 0.00 0.01 0.00 92 1016.9
20260902020954 54 239 2.0 3.0 0.00 0.00 0.00 93 1019.1
20260902020505 54 237 0.0 2.0 0.00 0.01 0.00 92 1017.0
20260902020454 54 230 2.0 2.0 0.00 0.00 0.00 93 1019.0
20260902020006 54 225 1.0 2.0 0.00 0.01 0.00 92 1017.1
20260902015959 54 232 2.0 3.0 0.00 0.00 0.00 93 1019.0
20260902015006 55 225 0.0 2.0 0.00 0.01 0.00 91 1017.0
20260902014954 54 238 2.0 3.0 0.00 0.00 0.00 93 1019.0
20260902014505 55 225 0.0 2.0 0.00 0.01 0.00 91 1017.0
20260902014454 54 189 1.0 2.0 0.00 0.00 0.00 93 1019.0
20260902014006 55 0 0.0 0.0 0.00 0.01 0.00 91 1017.0
20260902013953 54 184 1.0 2.0 0.00 0.00 0.00 93 1019.0
20260902013506 55 225 0.0 1.0 0.00 0.01 0.00 91 1017.0
20260902013005 55 225 0.0 1.0 0.00 0.01 0.00 91 1017.0
20260902012506 55 0 0.0 0.0 0.00 0.01 0.00 91 1016.9
20260902011953 54 225 2.0 2.0 0.00 0.00 0.00 92 1019.0
20260902011454 55 224 2.0 2.0 0.00 0.00 0.00 92 1018.9
20260902010954 55 221 2.0 2.0 0.00 0.00 0.00 92 1019.1
20260902010506 55 0 0.0 0.0 0.00 0.01 0.00 90 1016.9
20260902010453 55 218 1.0 2.0 0.00 0.00 0.00 92 1019.2
20260902005453 55 216 2.0 3.0 0.00 0.00 0.00 92 1018.8
20260902005006 56 237 0.0 3.0 0.00 0.01 0.00 89 1016.8
20260902004505 56 242 1.0 3.0 0.00 0.01 0.00 89 1016.9
20260902004454 55 216 2.0 4.0 0.00 0.00 0.00 92 1018.8
20260902004006 56 229 1.0 3.0 0.00 0.01 0.00 89 1016.9
20260902002506 56 234 1.0 3.0 0.00 0.01 0.00 89 1016.7
20260902002453 56 223 2.0 3.0 0.00 0.00 0.00 91 1018.9
20260902002006 56 237 1.0 2.0 0.00 0.01 0.00 89 1016.7
20260902001953 56 200 2.0 2.0 0.00 0.00 0.00 90 1018.8
20260902001506 56 231 0.0 2.0 0.00 0.01 0.00 89 1016.6
20260902001454 56 201 2.0 3.0 0.00 0.00 0.00 90 1018.9
20260902001005 56 225 2.0 3.0 0.00 0.01 0.00 89 1016.7
20260902000506 56 225 2.0 4.0 0.00 0.01 0.00 88 1016.7
20260902000454 55 229 3.0 4.0 0.00 0.00 0.00 89 1018.8
20260902000006 56 225 1.0 4.0 0.00 0.01 0.00 88 1016.9
20260901235959 55 262 2.0 4.0 0.00 0.00 0.00 89 1018.8
20260901235506 56 225 0.0 2.0 0.00 0.01 0.00 88 1016.7
20260901235454 56 232 1.0 2.0 0.00 0.00 0.00 89 1018.9
20260901235005 56 225 0.0 2.0 0.00 0.01 0.00 88 1016.8
20260901234953 56 225 1.0 2.0 0.00 0.00 0.00 89 1018.6
20260901234454 56 225 1.0 2.0 0.00 0.00 0.00 89 1018.9
20260901234006 56 0 0.0 0.0 0.00 0.01 0.00 88 1016.7
20260901233953 56 228 1.0 2.0 0.00 0.00 0.00 89 1018.8
20260901233505 56 225 0.0 2.0 0.00 0.01 0.00 88 1016.7
20260901233453 56 221 2.0 2.0 0.00 0.00 0.00 88 1018.8
20260901233006 56 225 0.0 2.0 0.00 0.01 0.00 88 1016.7
20260901232954 56 214 1.0 2.0 0.00 0.00 0.00 88 1018.6
20260901232506 56 0 0.0 0.0 0.00 0.01 0.00 87 1016.7
20260901232453 56 218 1.0 2.0 0.00 0.00 0.00 88 1018.7
20260901232006 56 0 0.0 0.0 0.00 0.01 0.00 87 1016.6
20260901231954 56 225 1.0 2.0 0.00 0.00 0.00 88 1018.4
20260901231506 57 0 0.0 0.0 0.00 0.01 0.00 87 1016.7
20260901231454 56 225 1.0 2.0 0.00 0.00 0.00 87 1018.7
20260901231005 57 0 0.0 0.0 0.00 0.01 0.00 87 1016.7
20260901230454 57 208 1.0 2.0 0.00 0.00 0.00 87 1018.8
20260901230006 57 0 0.0 0.0 0.00 0.01 0.00 86 1016.7
20260901230000 57 182 1.0 2.0 0.00 0.00 0.00 86 1018.5
20260901225506 57 0 0.0 0.0 0.00 0.01 0.00 86 1016.7
20260901225453 57 181 1.0 2.0 0.00 0.00 0.00 86 1018.6
20260901225006 57 0 0.0 0.0 0.00 0.01 0.00 85 1016.6
20260901224954 57 181 0.0 1.0 0.00 0.00 0.00 85 1018.6
20260901224506 57 0 0.0 0.0 0.00 0.01 0.00 85 1016.6
20260901224453 58 171 0.0 2.0 0.00 0.00 0.00 85 1018.6
20260901224006 58 0 0.0 0.0 0.00 0.01 0.00 85 1016.6
20260901223505 58 0 0.0 0.0 0.00 0.01 0.00 85 1016.7
20260901223454 58 193 1.0 2.0 0.00 0.00 0.00 85 1018.7
20260901223006 58 0 0.0 0.0 0.00 0.01 0.00 84 1016.6
20260901222506 58 0 0.0 0.0 0.00 0.01 0.00 84 1016.7
20260901222454 58 199 1.0 2.0 0.00 0.00 0.00 84 1018.6
20260901222005 58 0 0.0 0.0 0.00 0.01 0.00 84 1016.8
20260901221953 58 208 1.0 2.0 0.00 0.00 0.00 84 1018.7
20260901221506 58 0 0.0 0.0 0.00 0.01 0.00 84 1016.7
20260901221454 59 237 1.0 2.0 0.00 0.00 0.00 84 1018.6
20260901221006 59 0 0.0 0.0 0.00 0.01 0.00 84 1016.5
20260901220954 59 235 2.0 2.0 0.00 0.00 0.00 84 1018.8
20260901220506 59 270 1.0 4.0 0.00 0.01 0.00 83 1016.7
20260901220453 59 244 2.0 4.0 0.00 0.00 0.00 83 1018.6
20260901220007 59 267 1.0 4.0 0.00 0.01 0.00 83 1016.6
20260901220001 59 237 2.0 4.0 0.00 0.00 0.00 83 1018.5
20260901215506 59 260 2.0 4.0 0.00 0.01 0.01 83 1016.6
20260901215454 59 243 3.0 4.0 0.00 0.00 0.00 82 1018.6
20260901215006 59 279 4.0 6.0 0.00 0.01 0.01 83 1016.7
20260901214954 59 252 4.0 6.0 0.00 0.00 0.00 82 1018.6
20260901214506 59 282 4.0 6.0 0.00 0.01 0.01 83 1016.7
20260901214453 59 262 5.0 6.0 0.00 0.00 0.00 82 1018.7
20260901214006 60 264 5.0 5.0 0.00 0.01 0.01 83 1016.7
20260901213954 60 265 5.0 6.0 0.00 0.00 0.00 83 1018.9
20260901213506 60 255 5.0 6.0 0.00 0.01 0.01 83 1016.7
20260901213453 60 249 5.0 6.0 0.00 0.00 0.00 83 1018.7
20260901213006 60 245 4.0 6.0 0.00 0.01 0.01 83 1016.7
20260901212954 60 247 5.0 6.0 0.00 0.00 0.00 83 1018.7
20260901212506 60 243 4.0 5.0 0.00 0.01 0.01 83 1016.7
20260901212006 60 240 3.0 5.0 0.00 0.01 0.01 83 1016.6
20260901211954 60 240 4.0 6.0 0.00 0.00 0.00 83 1018.8
20260901211506 60 230 1.0 4.0 0.00 0.01 0.01 83 1016.8
20260901211454 60 245 3.0 4.0 0.00 0.00 0.00 83 1018.8
20260901211006 60 264 0.0 4.0 0.00 0.01 0.01 83 1016.8
20260901210953 60 233 3.0 4.0 0.00 0.00 0.00 83 1018.8
20260901210505 60 226 1.0 4.0 0.00 0.01 0.01 83 1016.7
20260901210453 60 212 3.0 4.0 0.00 0.00 0.00 84 1018.5
20260901210006 60 221 1.0 4.0 0.00 0.01 0.01 83 1016.8
20260901205453 60 233 3.0 4.0 0.00 0.00 0.00 84 1018.7
20260901205005 60 218 2.0 5.0 0.00 0.01 0.01 83 1016.7
20260901204953 60 231 3.0 5.0 0.00 0.00 0.00 84 1018.7
20260901204506 60 216 2.0 5.0 0.00 0.01 0.01 83 1016.7
20260901204454 60 220 3.0 5.0 0.00 0.00 0.00 83 1018.7
20260901203954 60 200 2.0 4.0 0.00 0.00 0.00 83 1018.5
20260901203505 60 0 0.0 0.0 0.00 0.01 0.01 83 1016.7
20260901203453 60 217 2.0 2.0 0.00 0.00 0.00 83 1018.6
20260901203005 61 0 0.0 0.0 0.00 0.01 0.01 83 1016.5
20260901202954 60 223 2.0 3.0 0.00 0.00 0.00 83 1018.8
20260901202506 61 225 0.0 2.0 0.00 0.01 0.01 82 1016.5
20260901201953 61 224 2.0 3.0 0.00 0.00 0.00 82 1018.6
20260901201455 61 225 2.0 3.0 0.00 0.00 0.00 82 1018.5
20260901200954 61 225 2.0 3.0 0.00 0.00 0.00 82 1018.5
20260901200454 61 226 2.0 3.0 0.00 0.00 0.00 82 1018.6
20260901200005 62 0 0.0 0.0 0.00 0.01 0.01 82 1016.7
20260901195505 62 0 0.0 0.0 0.00 0.01 0.01 82 1016.8
20260901195453 62 237 3.0 4.0 0.00 0.00 0.00 82 1018.8
20260901195005 62 0 0.0 0.0 0.00 0.01 0.01 82 1016.8
20260901194953 62 232 3.0 4.0 0.00 0.00 0.00 82 1018.7
20260901194506 62 0 0.0 0.0 0.00 0.01 0.01 82 1016.7
20260901194455 62 222 3.0 4.0 0.00 0.00 0.00 82 1018.6
20260901194006 62 225 0.0 1.0 0.00 0.01 0.01 82 1016.8
20260901193954 61 219 3.0 4.0 0.00 0.00 0.00 82 1018.6
20260901193453 62 225 3.0 3.0 0.00 0.00 0.00 82 1018.5
20260901193006 62 181 0.0 2.0 0.00 0.01 0.01 81 1016.8
20260901192506 62 225 0.0 2.0 0.00 0.01 0.01 81 1016.8
20260901192454 62 234 2.0 3.0 0.00 0.00 0.00 82 1019.0
20260901192005 62 255 1.0 3.0 0.00 0.01 0.01 81 1016.8
20260901191953 62 231 2.0 3.0 0.00 0.00 0.00 81 1018.8
20260901191506 62 267 1.0 3.0 0.00 0.01 0.01 81 1016.7
20260901191453 62 240 2.0 3.0 0.00 0.00 0.00 81 1018.8
20260901191005 62 225 0.0 1.0 0.00 0.01 0.01 81 1016.7
20260901190453 62 226 2.0 3.0 0.00 0.00 0.00 81 1018.7
20260901190006 62 0 0.0 0.0 0.00 0.01 0.01 81 1016.7
20260901190001 62 224 2.0 3.0 0.00 0.00 0.00 81 1018.8
20260901185506 62 225 0.0 2.0 0.00 0.01 0.01 81 1016.8
20260901185455 62 229 2.0 3.0 0.00 0.00 0.00 81 1018.7
20260901185005 62 225 0.0 2.0 0.00 0.01 0.01 81 1016.6
20260901184505 62 225 0.0 2.0 0.00 0.01 0.01 80 1016.6
20260901184454 62 219 2.0 3.0 0.00 0.00 0.00 81 1018.6
20260901184005 62 225 0.0 2.0 0.00 0.01 0.01 80 1016.6
20260901183954 62 225 2.0 3.0 0.00 0.00 0.00 80 1018.6
20260901183453 62 228 2.0 2.0 0.00 0.00 0.00 80 1018.5
20260901183005 62 225 0.0 2.0 0.00 0.01 0.01 79 1016.6
20260901182954 62 231 2.0 2.0 0.00 0.00 0.00 78 1018.4
20260901182505 62 0 0.0 0.0 0.00 0.01 0.01 78 1016.5
20260901181954 62 212 1.0 2.0 0.00 0.00 0.00 77 1018.3
20260901181454 63 218 1.0 2.0 0.00 0.00 0.00 75 1018.3
20260901180506 63 0 0.0 0.0 0.00 0.01 0.01 74 1016.3
20260901180454 63 181 1.0 2.0 0.00 0.00 0.00 74 1018.3
20260901180006 63 0 0.0 0.0 0.00 0.01 0.01 74 1016.3
20260901180001 63 181 1.0 2.0 0.00 0.00 0.00 74 1018.1
20260901175505 64 0 0.0 0.0 0.00 0.01 0.01 74 1016.2
20260901175454 64 205 1.0 2.0 0.00 0.00 0.00 73 1018.0
20260901175005 64 234 1.0 4.0 0.00 0.01 0.01 73 1016.1
20260901174953 64 240 2.0 4.0 0.00 0.00 0.00 73 1018.1
20260901174505 64 232 2.0 4.0 0.00 0.01 0.01 72 1016.2
20260901174454 64 265 3.0 4.0 0.00 0.00 0.00 72 1018.0
20260901174007 64 243 3.0 4.0 0.00 0.01 0.01 72 1016.1
20260901173505 65 258 4.0 4.0 0.00 0.01 0.01 71 1016.1
20260901173453 65 263 4.0 4.0 0.00 0.00 0.00 71 1017.8
20260901173006 65 256 4.0 4.0 0.00 0.01 0.01 71 1016.0
20260901172953 65 268 4.0 4.0 0.00 0.00 0.00 70 1017.9
20260901172506 65 257 4.0 5.0 0.00 0.01 0.01 71 1016.2
20260901172454 65 260 5.0 5.0 0.00 0.00 0.00 70 1017.8
20260901172006 65 281 4.0 5.0 0.00 0.01 0.01 70 1016.0
20260901171953 65 262 5.0 5.0 0.00 0.00 0.00 70 1017.9
20260901171506 65 288 5.0 5.0 0.00 0.01 0.01 70 1016.0
20260901171454 65 264 5.0 6.0 0.00 0.00 0.00 69 1018.0
20260901171006 65 262 5.0 6.0 0.00 0.01 0.01 69 1016.0
20260901170954 65 272 5.0 6.0 0.00 0.00 0.00 69 1017.7
20260901170453 65 280 6.0 7.0 0.00 0.00 0.00 68 1017.5
20260901165959 65 274 7.0 10.0 0.00 0.00 0.00 68 1017.8
20260901165454 65 273 7.0 10.0 0.00 0.00 0.00 68 1017.7
20260901164954 66 264 6.0 8.0 0.00 0.00 0.00 68 1017.7
20260901164506 66 270 7.0 8.0 0.00 0.01 0.01 68 1015.7
20260901164006 66 290 8.0 12.0 0.00 0.01 0.01 67 1015.8
20260901163954 66 298 8.0 12.0 0.00 0.00 0.00 67 1017.6
20260901163505 66 270 9.0 12.0 0.00 0.01 0.01 66 1015.8
20260901163453 66 300 8.0 12.0 0.00 0.00 0.00 65 1017.7
20260901163005 67 263 9.0 11.0 0.00 0.01 0.01 65 1015.8
20260901162954 67 284 9.0 11.0 0.00 0.00 0.00 65 1017.6
20260901162505 67 268 10.0 15.0 0.00 0.01 0.01 65 1015.7
20260901162454 67 289 11.0 15.0 0.00 0.00 0.00 65 1017.6
20260901161953 67 298 12.0 15.0 0.00 0.00 0.00 64 1017.7
20260901161505 67 277 13.0 16.0 0.00 0.01 0.01 65 1015.7
20260901161454 67 293 13.0 16.0 0.00 0.00 0.00 64 1017.6
20260901161005 67 292 12.0 16.0 0.00 0.01 0.01 66 1015.6
20260901160953 67 293 12.0 16.0 0.00 0.00 0.00 65 1017.7
20260901160505 67 297 10.0 14.0 0.00 0.01 0.01 66 1015.7
20260901160454 67 303 10.0 13.0 0.00 0.00 0.00 65 1017.9
20260901160006 67 283 10.0 14.0 0.00 0.01 0.01 67 1015.7
20260901160000 67 299 10.0 12.0 0.00 0.00 0.00 66 1017.5
20260901155506 67 293 9.0 13.0 0.00 0.01 0.01 67 1015.5
20260901155453 67 287 10.0 12.0 0.00 0.00 0.00 66 1017.5
20260901155006 67 281 10.0 12.0 0.00 0.01 0.01 67 1015.6
20260901154005 67 287 10.0 13.0 0.00 0.01 0.01 67 1015.7
20260901153953 67 267 10.0 13.0 0.00 0.00 0.00 66 1017.3
20260901153453 67 274 11.0 15.0 0.00 0.00 0.00 66 1017.5
20260901153005 67 281 12.0 16.0 0.00 0.01 0.01 66 1015.5
20260901152953 67 274 12.0 15.0 0.00 0.00 0.00 65 1017.4
20260901152505 68 283 12.0 16.0 0.00 0.01 0.01 65 1015.5
20260901152454 67 276 12.0 15.0 0.00 0.00 0.00 65 1017.6
20260901152006 68 296 12.0 16.0 0.00 0.01 0.01 65 1015.4
20260901151954 68 290 12.0 16.0 0.00 0.00 0.00 65 1017.6
20260901151505 68 322 13.0 19.0 0.00 0.01 0.01 63 1015.5
20260901151454 68 286 13.0 20.0 0.00 0.00 0.00 64 1017.2
20260901151006 69 314 14.0 20.0 0.00 0.01 0.01 63 1015.3
20260901150953 68 294 15.0 20.0 0.00 0.00 0.00 62 1017.2
20260901150506 69 299 14.0 20.0 0.00 0.01 0.01 63 1015.2
20260901150453 69 295 14.0 19.0 0.00 0.00 0.00 62 1017.3